{"data":{"norad_id":64533,"intl_designator":"2025-135F","name":"TPA-1","alt_names":[],"object_type":"PAYLOAD","status":"ACTIVE","operator":null,"country":"NZ","launch_date":"2025-06-23","launch_site_code":"AFWTR","launch_vehicle":null,"mission":null,"orbit_class":"UNKNOWN","rcs_meters":null,"size_class":null,"mass_kg":null,"dimensions":null,"purposes":[],"wikipedia_slug":null,"has_3d_model":false,"image_url":null,"decayed_at":null,"tle_current":{"epoch":"2026-05-25T01:16:05.431296Z","epoch_age_seconds":64347,"freshness":"FRESH","line1":"1 64533U 25135F   26145.05284064  .00003052  00000+0  13984-3 0  9991","line2":"2 64533  97.4660 260.1800 0003621 269.1979  90.8842 15.21237295 51337","mean_motion":15.21237295,"eccentricity":0.0003621,"inclination_deg":97.466,"raan_deg":260.18,"arg_perigee_deg":269.1979,"mean_anomaly_deg":90.8842,"bstar":0.00013984,"rev_number":5133,"period_min":94.659788103604,"perigee_km":499.61605905456,"apogee_km":504.59873204582,"semimajor_km":6880.2443955502,"source":"CELESTRAK","updated_at":"2026-05-25T13:38:04.580814Z"}}}